| time (UTC) | temp C | wind direction | speed KPH | gust KPH | rain 1hr cm | rain 24hr cm | rain mn cm | humidity % | barometer mb |
| 20260505041539 | 17 | 323 | 0.0 | 0.0 | 0.00 | 0.00 | 0.00 | 55 | 1011.4 |
| 20260505040037 | 18 | 0 | 0.0 | 0.0 | 0.00 | 0.00 | 0.00 | 54 | 1011.2 |
| 20260505034541 | 18 | 0 | 0.0 | 0.0 | 0.00 | 0.00 | 0.00 | 52 | 1011.1 |
| 20260505033102 | 18 | 0 | 0.0 | 1.6 | 0.00 | 0.00 | 0.00 | 52 | 1011.2 |
| 20260505031540 | 19 | 0 | 0.0 | 1.6 | 0.00 | 0.00 | 0.00 | 51 | 1011.2 |
| 20260505030040 | 19 | 0 | 0.0 | 1.6 | 0.00 | 0.00 | 0.00 | 50 | 1011.1 |
| 20260505024536 | 19 | 0 | 0.0 | 1.6 | 0.00 | 0.00 | 0.00 | 50 | 1010.9 |
| 20260505023044 | 19 | 0 | 0.0 | 1.6 | 0.00 | 0.00 | 0.00 | 50 | 1011.1 |
| 20260505021540 | 19 | 0 | 0.0 | 1.6 | 0.00 | 0.00 | 0.00 | 49 | 1011.0 |
| 20260505020046 | 19 | 0 | 0.0 | 0.0 | 0.00 | 0.00 | 0.00 | 49 | 1011.0 |
| 20260505014542 | 20 | 295 | 0.0 | 1.6 | 0.00 | 0.00 | 0.00 | 48 | 1010.8 |
| 20260505013408 | 20 | 0 | 0.0 | 1.6 | 0.00 | 0.00 | 0.00 | 47 | 1010.6 |
| 20260505011536 | 20 | 0 | 0.0 | 1.6 | 0.00 | 0.00 | 0.00 | 47 | 1010.6 |
| 20260505010041 | 21 | 0 | 0.0 | 1.6 | 0.00 | 0.00 | 0.00 | 46 | 1010.4 |
| 20260505004547 | 21 | 0 | 0.0 | 1.6 | 0.00 | 0.00 | 0.00 | 45 | 1010.4 |
| 20260505003040 | 21 | 0 | 0.0 | 1.6 | 0.00 | 0.00 | 0.00 | 45 | 1010.2 |
| 20260505001539 | 21 | 0 | 0.0 | 1.6 | 0.00 | 0.00 | 0.00 | 44 | 1010.2 |
| 20260505000044 | 22 | 0 | 0.0 | 1.6 | 0.00 | 0.00 | 0.00 | 43 | 1010.3 |
| 20260504234558 | 22 | 0 | 0.0 | 3.2 | 0.00 | 0.00 | 0.00 | 42 | 1010.2 |
| 20260504233041 | 22 | 0 | 0.0 | 1.6 | 0.00 | 0.00 | 0.00 | 41 | 1010.0 |
| 20260504231548 | 23 | 0 | 0.0 | 6.4 | 0.00 | 0.00 | 0.00 | 40 | 1009.9 |
| 20260504230042 | 23 | 0 | 0.0 | 3.2 | 0.00 | 0.00 | 0.00 | 38 | 1009.9 |
| 20260504224538 | 23 | 305 | 1.6 | 14.5 | 0.00 | 0.00 | 0.00 | 37 | 1009.9 |
| 20260504223040 | 24 | 216 | 0.0 | 4.8 | 0.00 | 0.00 | 0.00 | 36 | 1009.9 |
| 20260504221535 | 25 | 328 | 0.0 | 9.7 | 0.00 | 0.00 | 0.00 | 35 | 1009.9 |
| 20260504220042 | 25 | 96 | 1.6 | 11.3 | 0.00 | 0.00 | 0.00 | 34 | 1010.0 |
| 20260504214542 | 25 | 0 | 0.0 | 9.7 | 0.00 | 0.00 | 0.00 | 33 | 1010.1 |
| 20260504213046 | 25 | 308 | 1.6 | 8.0 | 0.00 | 0.00 | 0.00 | 32 | 1010.2 |
| 20260504211540 | 26 | 187 | 0.0 | 8.0 | 0.00 | 0.00 | 0.00 | 32 | 1010.2 |
| 20260504210042 | 26 | 332 | 1.6 | 11.3 | 0.00 | 0.00 | 0.00 | 31 | 1010.1 |
| 20260504204613 | 26 | 0 | 0.0 | 14.5 | 0.00 | 0.00 | 0.00 | 31 | 1010.1 |
| 20260504203036 | 26 | 0 | 0.0 | 6.4 | 0.00 | 0.00 | 0.00 | 30 | 1010.3 |
| 20260504200042 | 26 | 0 | 0.0 | 9.7 | 0.00 | 0.00 | 0.00 | 30 | 1010.4 |
| 20260504194548 | 26 | 0 | 0.0 | 3.2 | 0.00 | 0.00 | 0.00 | 30 | 1010.8 |
| 20260504193041 | 26 | 309 | 0.0 | 4.8 | 0.00 | 0.00 | 0.00 | 30 | 1011.0 |
| 20260504191545 | 26 | 0 | 0.0 | 4.8 | 0.00 | 0.00 | 0.00 | 30 | 1011.3 |
| 20260504190040 | 26 | 0 | 0.0 | 6.4 | 0.00 | 0.00 | 0.00 | 30 | 1011.5 |
| 20260504184558 | 26 | 0 | 0.0 | 4.8 | 0.00 | 0.00 | 0.00 | 30 | 1011.7 |
| 20260504183046 | 25 | 93 | 0.0 | 9.7 | 0.00 | 0.00 | 0.00 | 32 | 1011.9 |
| 20260504181541 | 25 | 236 | 0.0 | 6.4 | 0.00 | 0.00 | 0.00 | 31 | 1012.0 |
| 20260504180038 | 25 | 0 | 0.0 | 6.4 | 0.00 | 0.00 | 0.00 | 33 | 1012.3 |
| 20260504174536 | 25 | 0 | 0.0 | 12.9 | 0.00 | 0.00 | 0.00 | 33 | 1012.5 |
| 20260504171545 | 25 | 288 | 0.0 | 4.8 | 0.00 | 0.00 | 0.00 | 33 | 1013.1 |
| 20260504081541 | 10 | 0 | 0.0 | 1.6 | 0.00 | 0.00 | 0.00 | 68 | 1015.7 |
| 20260504044542 | 8 | 0 | 0.0 | 0.0 | 0.00 | 0.00 | 0.00 | 73 | 1015.9 |
| 20260504043039 | 8 | 0 | 0.0 | 0.0 | 0.00 | 0.00 | 0.00 | 77 | 1015.8 |